1275955233370,22.0723
1275955293370,22.0765
1275955353370,22.1418
1275955413370,22.1841
1275955473370,22.0530
1275955533370,22.1521
1275955593370,22.0884
1275955653370,22.1816
1275955713370,22.0713
1275955773370,22.1777
1275955833370,22.1171
1275955893370,22.1018
1275955953370,22.1175
1275956013370,22.1101
1275956073370,22.0825
1275956133370,22.1403
1275956193370,22.0407
1275956253370,22.0626
1275956313370,22.1412
1275956373370,22.0260
1275956433370,22.1438
1275956493370,22.0420
1275956553370,22.1167
1275956613370,22.1129
1275956673370,22.1893
1275956733370,22.1622
1275956793370,22.1359
1275956853370,22.1122
1275956913370,22.0976
1275956973370,22.2355
1275957033370,22.1008
1275957093370,22.1581
1275957153370,22.1794
1275957213370,22.1690
1275957273370,22.0940
1275957333370,22.1430
1275957393370,22.1759
1275957453370,22.0840
1275957513370,22.1246
1275957573370,22.0114
1275957633370,22.1097
1275957693370,22.0482
1275957753370,22.0691
1275957813370,22.1063
1275957873370,22.1208
1275957933370,22.0708
1275957993370,22.2216
1275958053370,22.2017
1275958113370,22.0833
1275958173370,22.0941
1275958233370,22.0638
1275958293370,22.1205
1275958353370,22.0445
1275958413370,22.0781
1275958473370,22.1196
1275958533370,22.0270
1275958593370,22.1103
1275958653370,22.0611
1275958713370,22.1021
1275958773370,22.1511
1275958833379,22.1047
1275958893379,22.0558
1275958953379,22.1471
1275959013379,22.0896
1275959073379,22.0559
1275959133379,22.0140
1275959193379,22.0891
1275959253379,22.0589
1275959313379,22.0725
1275959373379,22.0973
1275959433379,21.9912
1275959493379,22.0070
1275959553379,21.9617
1275959613379,22.0603
1275959673379,22.0462
1275959733379,21.9486
1275959793379,22.0520
1275959853379,22.1289
1275959913379,22.0695
1275959973379,21.9247
1275960033379,22.0045
1275960093379,22.0485
1275960153379,22.0727
1275960213379,21.9303
1275960273379,21.9814
1275960333379,22.0835
1275960393379,21.9483
1275960453379,22.0420
1275960513379,21.9255
1275960573379,22.0823
1275960633379,22.0250
1275960693379,22.0431
1275960753379,21.9946
1275960813379,22.0257
1275960873379,22.0701
1275960933379,22.0518
1275960993379,22.1013
1275961053379,22.0983
1275961113379,22.1070
1275961173379,22.0970
1275961233379,22.0610
1275961293379,22.1146
1275961353379,22.0893
1275961413379,22.0547
1275961473379,22.0211
1275961533379,22.0813
1275961593379,22.0855
1275961653379,22.0525
1275961713379,22.0730
1275961773379,22.0492
1275961833379,22.0611
1275961893379,22.0755
1275961953379,22.0449
1275962013379,21.9944
1275962073379,22.0161
1275962133379,22.0196
1275962193379,22.0567
1275962253379,22.0067
1275962313379,21.9885
1275962373379,22.0624
1275962433388,22.0711
1275962493388,22.0564
1275962553388,22.0385
1275962613388,22.0099
1275962673388,22.0369
1275962733388,22.0517
1275962793388,22.0732
1275962853388,22.0262
1275962913388,22.0529
1275962973388,22.0020
1275963033388,22.0815
1275963093388,22.0427
1275963153388,22.0055
1275963213388,21.9898
1275963273388,22.0268
1275963333388,22.0214
1275963393388,22.0572
1275963453388,22.0789
1275963513388,22.0201
1275963573388,22.0501
1275963633388,21.9843
1275963693388,22.0757
1275963753388,22.1030
1275963813388,21.9940
1275963873388,22.0674
1275963933388,22.1081
1275963993388,22.0510
1275964053388,21.9799
1275964113388,22.1278
1275964173388,22.0726
1275964233388,22.1053
1275964293388,22.0556
1275964353388,22.1071
1275964413388,22.0908
1275964473388,22.0566
1275964533388,22.1236
1275964593388,22.1330
1275964653388,22.1516
1275964713388,21.9898
1275964773388,22.1311
1275964833388,22.0608
1275964893388,22.0611
1275964953388,22.0270
1275965013388,22.1177
1275965073388,22.0069
1275965133388,22.0607
1275965193388,22.0252
1275965253388,21.9992
1275965313388,22.0157
1275965373388,22.0282
1275965433388,22.1176
1275965493388,22.0681
1275965553388,22.0912
1275965613388,22.1000
1275965673388,22.0332
1275965733388,22.0873
1275965793388,22.0261
1275965853388,22.1018
1275965913388,22.0989
1275965973388,22.1377
1275966033398,22.1589
1275966093398,22.0703
1275966153398,21.9975
1275966213397,22.0151
1275966273398,22.0177
1275966333398,22.0322
1275966393398,21.9434
1275966453398,22.0397
1275966513398,21.9721
1275966573398,21.9661
1275966633398,22.0629
1275966693398,22.0079
1275966753398,22.0181
1275966813398,22.0293
1275966873398,21.9982
1275966933398,21.9447
1275966993398,21.9928
1275967053398,22.0349
1275967113398,21.9707
1275967173398,22.0354
1275967233398,21.9323
1275967293398,22.0058
1275967353398,21.8930
1275967413398,22.0043
1275967473398,21.9554
1275967533397,22.0235
1275967593397,22.1078
1275967653398,21.9733
1275967713398,22.0453
1275967773398,21.9787
1275967833398,22.0085
1275967893398,21.9377
1275967953398,21.9871
1275968013398,22.0009
1275968073398,22.0160
1275968133398,22.0448
1275968193398,21.9884
1275968253398,21.9843
1275968313398,21.9629
1275968373398,21.9121
1275968433398,22.0097
1275968493398,21.9248
1275968553398,21.9729
1275968613398,22.0547
1275968673398,21.9857
1275968733398,22.0106
1275968793398,22.0743
1275968853398,21.9714
1275968913397,21.9626
1275968973398,22.0165
1275969033398,22.0231
1275969093398,21.8100
1275969153398,21.9998
1275969213398,22.0233
1275969273398,21.9832
1275969333398,21.9838
1275969393398,21.9851
1275969453398,22.0002
1275969513398,22.0084
1275969573398,22.0593
1275969633406,21.9654
1275969693406,22.0088
1275969753406,21.9575
1275969813406,21.9201
1275969873406,21.9491
1275969933406,22.0546
1275969993406,21.9873
1275970053406,22.0096
1275970113406,21.9759
1275970173406,22.0793
1275970233406,22.4522
1275970293406,22.0792
1275970353406,22.0781
1275970413406,22.0376
1275970473406,21.9969
1275970533406,22.1408
1275970593406,22.0164
1275970653406,22.0564
1275970713406,22.0741
1275970773406,21.9891
1275970833406,22.0297
1275970893406,22.1244
1275970953406,22.0378
1275971013406,22.0754
1275971073406,22.0621
1275971133406,22.0058
1275971193406,22.0731
1275971253406,22.0451
1275971313406,22.0461
1275971373406,22.0370
1275971433406,22.0799
1275971493406,21.9604
1275971553406,21.9944
1275971613406,22.0392
1275971673406,22.0734
1275971733406,22.1123
1275971793406,22.0112
1275971853406,22.1046
1275971913406,22.0951
1275971973406,22.1047
1275972033406,22.0992
1275972093406,22.1193
1275972153406,22.0537
1275972213406,22.1468
1275972273406,22.1364
1275972333406,22.0849
1275972393406,22.1363
1275972453406,22.1293
1275972513406,22.1274
1275972573406,22.1123
1275972633406,22.1435
1275972693406,22.1188
1275972753406,22.1670
1275972813406,22.0624
1275972873406,22.1592
1275972933406,22.0832
1275972993406,22.1732
1275973053406,22.2105
1275973113406,22.1458
1275973173406,22.2002
1275973233415,22.2220
1275973293415,22.1463
1275973353415,22.0983
1275973413415,22.2220
1275973473415,22.1626
1275973533415,22.1558
1275973593415,22.1126
1275973653415,22.1579
1275973713415,22.2192
1275973773415,22.0983
1275973833415,22.1999
1275973893415,22.1908
1275973953415,22.2428
1275974013415,22.1262
1275974073415,22.2325
1275974133415,22.1281
1275974193415,22.1304
1275974253415,22.0998
1275974313415,22.1033
1275974373415,22.1326
1275974433415,22.1331
1275974493415,22.1682
1275974553415,22.1418
1275974613415,22.0451
1275974673415,22.0911
1275974733415,22.0558
1275974793415,22.1651
1275974853415,22.1309
1275974913415,22.1403
1275974973415,22.1746
1275975033415,22.1706
1275975093415,22.1435
1275975153415,22.1275
1275975213415,22.1446
1275975273415,22.0938
1275975333415,22.1207
1275975393415,22.1957
1275975453415,22.1967
1275975513415,22.1710
1275975573415,22.1781
1275975633415,22.1278
1275975693415,22.2592
1275975753415,22.2158
1275975813415,22.1774
1275975873415,22.2223
1275975933415,22.2114
1275975993415,22.1711
1275976053415,22.1782
1275976113415,22.1910
1275976173415,22.2289
1275976233415,22.2232
1275976293415,22.2517
1275976353415,22.1938
1275976413415,22.2402
1275976473415,22.2029
1275976533415,22.2120
1275976593415,22.1731
1275976653415,22.2959
1275976713415,22.2185
1275976773415,22.2581
1275976833423,22.2799
1275976893423,22.2226
1275976953423,22.2134
1275977013423,22.3114
1275977073423,22.2892
1275977133423,22.2177
1275977193423,22.3522
1275977253423,22.2185
1275977313423,22.3097
1275977373423,22.2488
1275977433423,22.2410
1275977493423,22.1868
1275977553423,22.1999
1275977613423,22.1978
1275977673423,22.2343
1275977733423,22.2780
1275977793423,22.2319
1275977853423,22.1768
1275977913423,22.2371
1275977973423,22.2642
1275978033423,22.3080
1275978093423,22.3041
1275978153423,22.3182
1275978213423,22.3192
1275978273423,22.2962
1275978333423,22.3094
1275978393423,22.3508
1275978453423,22.3549
1275978513423,22.3230
1275978573423,22.3651
1275978633423,22.4213
1275978693423,22.3438
1275978753423,22.3665
1275978813423,22.4351
1275978873423,22.4355
1275978933423,22.3847
1275978993423,22.2941
1275979053423,22.3888
1275979113423,22.4137
1275979173423,22.3727
1275979233423,22.3650
1275979293423,22.2903
1275979353423,22.3891
1275979413423,22.3756
1275979473423,22.3265
1275979533423,22.3698
1275979593423,22.3773
1275979653423,22.3803
1275979713423,22.3221
1275979773423,22.4497
1275979833423,22.3830
1275979893423,22.3914
1275979953423,22.3407
1275980013423,22.3671
1275980073423,22.4267
1275980133423,22.3504
1275980193423,22.4083
1275980253423,22.3187
1275980313423,22.2846
1275980373423,22.4123
1275980433432,22.4167
1275980493432,22.3870
1275980553432,22.3779
1275980613432,22.4097
1275980673432,22.4299
1275980733432,22.3511
1275980793432,22.3755
1275980853432,22.4727
1275980913432,22.5255
1275980973432,22.4004
1275981033432,22.4419
1275981093432,22.4311
1275981153432,22.4293
1275981213432,22.4388
1275981273432,22.4095
1275981333432,22.3988
1275981393432,22.4347
1275981453432,22.4764
1275981513432,22.4403
1275981573432,22.4948
1275981633432,22.5291
1275981693432,22.4296
1275981753432,22.4240
1275981813432,22.4446
1275981873432,22.3810
1275981933432,22.3739
1275981993432,22.4899
1275982053432,22.4319
1275982113432,22.4211
1275982173432,22.3960
1275982233432,22.5966
1275982293432,22.4840
1275982353432,22.3604
1275982413432,22.3805
1275982473432,22.4455
1275982533432,22.4008
1275982593432,22.4675
1275982653432,22.4559
1275982713432,22.4618
1275982773432,22.4151
1275982833432,22.4820
1275982893432,22.4229
1275982953432,22.4438
1275983013432,22.5119
1275983073432,22.3700
1275983133432,22.3848
1275983193432,22.4097
1275983253432,22.3237
1275983313432,22.4237
1275983373432,22.4373
1275983433432,22.3762
1275983493432,22.3717
1275983553432,22.4799
1275983613432,22.3454
1275983673432,22.4843
1275983733432,22.4238
1275983793432,22.3827
1275983853432,22.3347
1275983913432,22.3643
1275983973432,22.2813
1275984033440,22.3347
1275984093440,22.3785
1275984153440,22.3842
1275984213440,22.3676
1275984273440,22.2857
1275984333440,22.3160
1275984393440,22.3214
1275984453440,22.3060
1275984513440,22.2187
1275984573440,22.2714
1275984633440,22.3205
1275984693440,22.3164
1275984753440,22.2805
1275984813440,22.2768
1275984873440,22.2523
1275984933440,22.2703
1275984993440,22.2514
1275985053440,22.2446
1275985113440,22.3266
1275985173440,22.3125
1275985233440,22.2169
1275985293440,22.1929
1275985353440,22.1907
1275985413440,22.2508
1275985473440,22.2965
1275985533440,22.2341
1275985593440,22.3395
1275985653440,22.2622
1275985713440,22.3223
1275985773440,22.1874
1275985833440,22.2490
1275985893440,22.2509
1275985953440,22.1400
1275986013440,22.1704
1275986073440,22.2247
1275986133440,22.2225
1275986193440,22.1791
1275986253440,22.1837
1275986313440,22.2258
1275986373440,22.1386
1275986433440,22.1813
1275986493440,22.1930
1275986553440,22.1270
1275986613440,22.2109
1275986673440,22.1969
1275986733440,22.1675
1275986793440,22.1493
1275986853440,22.1787
1275986913440,22.1944
1275986973440,22.1871
1275987033440,22.1774
1275987093440,22.1270
1275987153440,22.5288
1275987213440,22.2066
1275987273440,22.2002
1275987333440,22.1453
1275987393440,22.1565
1275987453440,22.1883
1275987513440,22.1365
1275987573440,22.2048
1275987633449,22.1865
1275987693449,22.1846
1275987753449,22.1381
1275987813449,22.2204
1275987873449,22.2078
1275987933449,22.2989
1275987993449,22.2471
1275988053449,22.2648
1275988113449,22.3119
1275988173449,22.1532
1275988233449,22.2919
1275988293449,22.1345
1275988353449,22.2756
1275988413449,22.3019
1275988473449,22.2221
1275988533449,22.2318
1275988593449,22.2708
1275988653449,22.2621
1275988713449,22.2598
1275988773449,22.3042
1275988833449,22.3135
1275988893449,22.3215
1275988953449,22.3387
1275989013449,22.3202
1275989073449,22.2924
1275989133449,22.3538
1275989193449,22.2408
1275989253449,22.3289
1275989313449,22.3064
1275989373449,22.3109
1275989433449,22.3667
1275989493449,22.3113
1275989553449,22.3176
1275989613449,22.2930
1275989673449,22.2364
1275989733449,22.3149
1275989793449,22.2845
1275989853449,22.2885
1275989913449,22.3391
1275989973449,22.3193
1275990033449,22.2945
1275990093449,22.3574
1275990153449,22.2987
1275990213449,22.2758
1275990273449,22.2760
1275990333449,22.3148
1275990393449,22.1948
1275990453449,22.3261
1275990513449,22.2877
1275990573449,22.2653
1275990633449,22.3007
1275990693449,22.2588
1275990753449,22.2579
1275990813449,22.2766
1275990873449,22.2611
1275990933449,22.2097
1275990993449,22.2326
1275991053449,22.2126
1275991113449,22.2434
1275991173449,22.2319
1275991233457,22.2393
1275991293457,22.2404
1275991353457,22.1710
1275991413457,22.2086
1275991473457,22.2079
1275991533457,22.2480
1275991593457,22.2474
1275991653457,22.1696
1275991713457,22.2052
1275991773457,22.1997
1275991833457,22.2067
1275991893457,22.1825
1275991953457,22.2950
1275992013457,22.1619
1275992073457,22.1357
1275992133457,22.2326
1275992193457,22.1969
1275992253457,22.2018
1275992313457,22.1597
1275992373457,22.1594
1275992433457,22.1945
1275992493457,22.2219
1275992553457,22.2446
1275992613457,22.1459
1275992673457,22.2586
1275992733457,22.1581
1275992793457,22.2473
1275992853457,22.1596
1275992913457,22.1624
1275992973457,22.1991
1275993033457,22.1719
1275993093457,22.1867
1275993153457,22.2292
1275993213457,22.1720
1275993273457,22.2026
1275993333457,22.2266
1275993393457,22.1656
1275993453457,22.2014
1275993513457,22.2498
1275993573457,22.2319
1275993633457,22.2207
1275993693457,22.2008
1275993753457,22.2199
1275993813457,22.2359
1275993873457,22.2382
1275993933457,22.2045
1275993993457,22.2831
1275994053457,22.3165
1275994113457,22.1892
1275994173457,22.2046
1275994233457,22.2333
1275994293457,22.2657
1275994353457,22.2926
1275994413457,22.2421
1275994473457,22.2601
1275994533457,22.2222
1275994593457,22.2908
1275994653457,22.3005
1275994713457,22.2657
1275994773457,22.3199
1275994833465,22.3412
1275994893465,22.2693
1275994953465,22.3044
1275995013465,22.3379
1275995073465,22.3733
1275995133465,22.3621
1275995193465,22.3256
1275995253465,22.2665
1275995313465,22.3504
1275995373465,22.3879
1275995433465,22.3319
1275995493465,22.2038
1275995553465,22.3236
1275995613465,22.3253
1275995673465,22.4095
1275995733465,22.2739
1275995793465,22.3578
1275995853465,22.3366
1275995913465,22.4421
1275995973465,22.3919
1275996033465,22.3900
1275996093465,22.4191
1275996153465,22.3324
1275996213465,22.3069
1275996273465,22.3348
1275996333465,22.3538
1275996393465,22.2762
1275996453465,22.3231
1275996513465,22.3724
1275996573465,22.3697
1275996633465,22.3499
1275996693465,22.4916
1275996753465,22.4059
1275996813465,22.3895
1275996873465,22.4625
1275996933465,22.3898
1275996993465,22.4595
1275997053465,22.4014
1275997113465,22.4228
1275997173465,22.4108
1275997233465,22.3817
1275997293465,22.3895
1275997353465,22.4179
1275997413465,22.3921
1275997473465,22.4052
1275997533465,22.3709
1275997593465,22.3691
1275997653465,22.3828
1275997713465,22.5035
1275997773465,22.4735
1275997833465,22.4359
1275997893465,22.4484
1275997953465,22.4269
1275998013465,22.4474
1275998073465,22.3713
1275998133465,22.4554
1275998193465,22.5292
1275998253465,22.4704
1275998313465,22.4548
1275998373465,22.4693
1275998433473,22.4646
1275998493473,22.3319
1275998553473,22.4742
1275998613473,22.3806
1275998673473,22.4557
1275998733473,22.4088
1275998793473,22.4426
1275998853473,22.4345
1275998913473,22.5044
1275998973473,22.4564
1275999033473,22.4816
1275999093473,22.4660
1275999153473,22.4654
1275999213473,22.5109
1275999273473,22.5354
1275999333473,22.4790
1275999393473,22.5029
1275999453473,22.4909
1275999513473,22.4708
1275999573473,22.4981
1275999633473,22.5076
1275999693473,22.4858
1275999753473,22.4961
1275999813473,22.4835
1275999873473,22.4389
1275999933473,22.5091
1275999993473,22.5867
1276000053473,22.4890
1276000113473,22.5274
1276000173473,22.4987
1276000233473,22.4517
1276000293473,22.4857
1276000353473,22.7588
1276000413473,22.5097
1276000473473,22.5227
1276000533473,22.4712
1276000593473,22.5465
1276000653473,22.5537
1276000713473,22.4684
1276000773473,22.4323
1276000833473,22.4279
1276000893473,22.5284
1276000953473,22.4603
1276001013473,22.4392
1276001073473,22.5486
1276001133473,22.4708
1276001193473,22.5023
1276001253473,22.4761
1276001313473,22.4932
1276001373473,22.5026
1276001433473,22.4721
1276001493473,22.4475
1276001553473,22.4061
1276001613473,22.5610
1276001673473,22.5554
1276001733473,22.5432
1276001793473,22.4784
1276001853473,22.4989
1276001913473,22.5409
1276001973473,22.5900
1276002033482,22.5300
1276002093482,22.6143
1276002153482,22.5452
1276002213482,22.5891
1276002273482,22.5475
1276002333482,22.4854
1276002393482,22.5776
1276002453482,22.5666
1276002513482,22.5648
1276002573482,22.6524
1276002633482,22.5550
1276002693482,22.5278
1276002753482,22.6442
1276002813482,22.5150
1276002873482,22.5945
1276002933482,22.6614
1276002993482,22.6045
1276003053482,22.5437
1276003113482,22.5248
1276003173482,22.5721
1276003233482,22.5405
1276003293482,22.6242
1276003353482,22.6210
1276003413482,22.5092
1276003473482,22.6665
1276003533482,22.5256
1276003593482,22.6434
1276003653482,22.6336
1276003713482,22.5331
1276003773482,22.6536
1276003833482,22.5490
1276003893482,22.4953
1276003953482,22.6590
1276004013482,22.5842
1276004073482,22.6161
1276004133482,22.5844
1276004193482,22.6382
1276004253482,22.7218
1276004313482,22.6295
1276004373482,22.6740
1276004433482,22.6857
1276004493482,22.6942
1276004553482,22.7285
1276004613482,22.7104
1276004673482,22.6420
1276004733482,22.7473
1276004793482,22.7997
1276004853482,22.7752
1276004913482,22.6868
1276004973482,22.7243
1276005033482,22.7670
1276005093482,22.7438
1276005153482,22.7467
1276005213482,22.7062
1276005273482,22.6877
1276005333482,22.6622
1276005393482,22.6944
1276005453482,22.7102
1276005513482,22.7011
1276005573482,22.7249
1276005633490,22.7133
1276005693490,22.7325
1276005753490,22.7571
1276005813490,22.7312
1276005873490,22.6637
1276005933490,22.6903
1276005993490,22.7278
1276006053490,22.7421
1276006113490,22.6650
1276006173490,22.6743
1276006233490,22.6840
1276006293490,22.7192
1276006353490,22.6141
1276006413490,22.7540
1276006473490,22.7304
1276006533490,22.7721
1276006593490,22.6510
1276006653490,22.7614
1276006713490,22.7564
1276006773490,22.6721
1276006833490,22.6379
1276006893490,22.7311
1276006953490,22.7400
1276007013490,22.7641
1276007073490,22.7195
1276007133490,22.8089
1276007193490,22.7181
1276007253490,22.7362
1276007313490,22.7678
1276007373490,22.7769
1276007433490,22.7424
1276007493490,22.6823
1276007553490,22.7798
1276007613490,22.7903
1276007673490,22.8900
1276007733490,22.8075
1276007793490,22.7761
1276007853490,22.8367
1276007913490,22.6871
1276007973490,22.7624
1276008033490,22.7376
1276008093490,22.7307
1276008153490,22.7382
1276008213490,22.7669
1276008273490,22.7316
1276008333490,22.7960
1276008393490,22.7250
1276008453490,22.8615
1276008513490,22.8075
1276008573490,22.8133
1276008633490,22.8110
1276008693490,22.7459
1276008753490,22.9140
1276008813490,22.8372
1276008873490,22.7856
1276008933490,22.7776
1276008993490,22.7881
1276009053490,22.8665
1276009113490,22.7766
1276009173490,22.7665
1276009233498,22.5434
1276009833498,22.6873
1276009893498,20.7259
1276009953498,22.8719
1276010013498,22.8338
1276010073498,22.7884
1276010133498,22.7905
1276010193498,22.7404
1276010253498,22.8042
1276010313498,22.8853
1276010373498,22.7877
1276010433498,22.8351
1276010493498,22.7551
1276010553498,22.8873
1276010613498,22.8200
1276010673498,22.7761
1276010733498,22.7529
1276010793498,22.7917
1276010853498,22.7844
1276010913498,22.7465
1276010973498,22.7065
1276011033498,22.6898
1276011093498,22.8083
1276011153498,22.7077
1276011213498,22.7202
1276011273498,22.7262
1276011333498,22.7553
1276011393498,22.6140
1276011453498,22.8739
1276011513498,22.7398
1276011573498,22.7469
1276011633498,22.7880
1276011693498,22.7855
1276011753498,22.7483
1276011813498,22.8085
1276011873498,22.7366
1276011933498,22.7589
1276011993498,22.8256
1276012053498,22.6926
1276012113498,22.8311
1276012173498,22.6786
1276012233498,22.7425
1276012293498,22.7113
1276012353498,22.7872
1276012413498,22.7630
1276012473498,22.8544
1276012533498,22.7817
1276012593498,22.7685
1276012653498,22.8450
1276012713498,22.7794
1276012773498,22.8651
1276012833507,22.8622
1276012893507,22.8721
1276012953507,22.8708
1276013013507,22.8319
1276013073507,22.8588
1276013133507,22.8955
1276013193507,22.8470
1276013253507,22.8452
1276013313507,22.8620
1276013373507,22.8569
1276013433507,22.8240
1276013493507,22.8726
1276013553507,22.8623
1276013613507,22.8359
1276013673507,22.8141
1276013733507,22.8916
1276013793507,22.8939
1276013853507,22.8326
1276013913507,22.8805
1276013973507,22.8302
1276014033507,22.8556
1276014093507,22.9317
1276014153507,22.8988
1276014213507,22.9147
1276014273507,22.8883
1276014333507,22.8531
1276014393507,22.8629
1276014453507,22.8101
1276014513507,22.8432
1276014573507,22.8220
1276014633507,22.8316
1276014693507,22.8724
1276014753507,22.8145
1276014813507,22.8312
1276014873507,22.9407
1276014933507,22.7740
1276014993507,22.8313
1276015053507,22.8864
1276015113507,22.8017
1276015173507,22.7856
1276015233507,22.8225
1276015293507,22.8039
1276015353507,22.8153
1276015413507,22.8548
1276015473507,22.8559
1276015533507,22.8113
1276015593507,22.8948
1276015653507,22.7819
1276015713507,22.8145
1276015773507,22.8478
1276015833507,22.8518
1276015893507,22.8635
1276015953507,22.8444
1276016013507,22.9170
1276016073507,22.8539
1276016133507,22.8913
1276016193507,22.8373
1276016253507,22.8654
1276016313507,22.9616
1276016373507,22.9067
1276016433516,22.8711
1276016493516,22.9356
1276016553516,22.9442
1276016613516,22.9231
1276016673516,22.8399
1276016733516,22.9505
1276016793516,22.9391
1276016853516,22.9025
1276016913516,22.9095
1276016973516,22.9168
1276017033516,22.9810
1276017093516,22.9554
1276017153516,22.8990
1276017213516,22.8749
1276017273516,22.9114
1276017333516,22.9073
1276017393516,22.9844
1276017453516,22.9088
1276017513516,22.9906
1276017573516,22.9055
1276017633516,22.9272
1276017693516,23.0859
1276017753516,22.9399
1276017813516,22.9733
1276017873516,22.8749
1276017933516,22.8179
1276017993516,22.9614
1276018053516,22.8567
1276018113516,22.8488
1276018173516,22.9225
1276018233516,22.9766
1276018293516,22.8871
1276018353516,22.9261
1276018413516,22.9233
1276018473516,22.8799
1276018533516,22.8905
1276018593516,22.8726
1276018653516,22.8921
1276018713516,22.8687
1276018773516,22.8562
1276018833516,22.8373
1276018893516,22.7819
1276018953516,22.9522
1276019013516,22.9086
1276019073516,22.9061
1276019133516,22.9023
1276019193516,22.9528
1276019253516,22.8365
1276019313516,22.7770
1276019373516,22.8784
1276019433516,22.8838
1276019493516,22.9318
1276019553516,22.9854
1276019613516,22.9466
1276019673516,22.8560
1276019733516,22.9163
1276019793516,23.1459
1276019853516,22.8656
1276019913516,22.8923
1276019973516,22.8333
1276020033525,22.8569
1276020093525,22.8461
1276020153525,22.9389
1276020213525,22.8329
1276020273525,22.8493
1276020333525,22.9158
1276020393525,22.8615
1276020453525,22.8325
1276020513525,22.8399
1276020573525,22.8437
1276020633525,22.9651
1276020693525,22.9075
1276020753525,22.8283
1276020813525,22.7718
1276020873525,22.8683
1276020933525,22.9341
1276020993525,22.8559
1276021053525,22.8369
1276021113525,22.8275